Retour au catalogue

STARLINK-2504

ActifCommunicationsVLEO
NORAD 48328·PAYLOAD·🇺🇸 United States

Lancé Apr 29, 2021 depuis Cape Canaveral Space Force Station

Loading…

Prochains Passages (prochaines 24 heures)

TLE

FraisSource: CelesTrak SupGP

Époque: Sep 14, 2026, 12:30 UTC

1 48328C 21036BE  26257.52131944  .00037933  00000+0  12196-2 0  2570
2 48328  53.1572 302.2106 0001198  73.1148  86.7046 15.31689223    19

Suivez STARLINK-2504 en temps réel avec AllMySat

Download on the App Store